Flag for U.S.A. Weather past 2 weeks in Jackson, Mississippi, U.S.A.

Now
68 °F

Sunny.


Feels Like: 68 °F
Forecast: 53 / 79 °F
Wind: 9 mph from Southeast

Location: Hawkins Field


UV Index: 7 (High)

Visibility: 10 mi


Pressure: 30.21 "Hg

Humidity: 61%

Dew point: 54 °F

Location of JacksonLocation

Historic Weather in Jackson

°F

Jackson temperature yesterday

Maximum temperature yesterday: 78 °F (at 1:53 PM)
Minimum temperature yesterday: 51 °F (at 6:53 AM)
Average temperature yesterday: 65 °F

Past Weeks' High & Low Weather Summary

 TemperatureHumidityPressure
High83 °F (Apr 13, 2:53 PM)97% (Apr 7, 3:53 AM)30.26 "Hg (Apr 7, 3:53 AM)
Low37 °F (Apr 16, 5:53 AM)25% (Apr 16, 2:53 PM)29.58 "Hg (Apr 7, 3:53 AM)
Average60 °F67%30.04 "Hg
* Reported Apr 5 8:53 AM — Apr 20 8:53 AM, Jackson, Weather by CustomWeather, © 2014

Note: Actual official high and low records may vary slightly from our data, if they occured in-between our weather recording intervals... More about our weather records

Advertising

Historic Weather Conditions — Data for Previous 24 hours

 ConditionsComfort  
Time TempWeatherWind HumidityBarometerVisibility
8:53 AM
Apr 20
64 °FSunny.9 mph68%30.20 "Hg10 mi
7:53 AM59 °FSunny.6 mph75%30.18 "Hg10 mi
6:53 AM52 °FFog.No wind89%30.16 "Hg4 mi
5:53 AM52 °FClear.No wind89%30.14 "Hg7 mi
4:53 AM53 °FClear.No wind86%30.12 "Hg8 mi
3:53 AM54 °FClear.No wind86%30.13 "Hg9 mi
2:53 AM54 °FClear.No wind90%30.10 "Hg9 mi
1:53 AM56 °FClear.No wind84%30.10 "Hg10 mi
12:53 AM57 °FClear.No wind83%30.11 "Hg10 mi
11:53 PM
Apr 19
58 °FClear.No wind81%30.12 "Hg10 mi
10:53 PM63 °FClear.No wind65%30.13 "Hg10 mi
9:53 PM64 °FClear.No wind65%30.12 "Hg10 mi
8:53 PM66 °FClear.No wind61%30.11 "Hg10 mi
7:53 PM71 °FSunny.No wind49%30.09 "Hg10 mi
6:53 PM75 °FSunny.7 mph42%30.09 "Hg10 mi
5:53 PM77 °FSunny.8 mph39%30.09 "Hg10 mi
4:53 PM77 °FPartly sunny.7 mph39%30.09 "Hg10 mi
3:53 PM77 °FScattered clouds.7 mph36%30.09 "Hg10 mi
2:53 PM75 °FPassing clouds.5 mph39%30.12 "Hg10 mi
1:53 PM78 °FSunny.8 mph35%30.14 "Hg10 mi
12:53 PM75 °FSunny.8 mph39%30.15 "Hg10 mi
11:53 AM73 °FSunny.7 mph43%30.17 "Hg10 mi
10:53 AM71 °FSunny.12 mph44%30.17 "Hg10 mi
Weather by CustomWeather, © 2014

See weather overview